Time,TemperatureF,DewpointF,PressureIn,WindDirection,WindDirectionDegrees,WindSpeedMPH,WindSpeedGustMPH,Humidity,HourlyPrecipIn,Conditions,Clouds,dailyrainin,SoftwareType,DateUTC
2013-12-24 00:01:00,70.0,69.6,30.02,South,180,0.0,0.0,99,0.00,,,0.00,meteohub,2013-12-24 05:01:00,
2013-12-24 00:02:00,70.0,69.6,30.02,South,180,0.0,0.0,99,0.00,,,0.00,meteohub,2013-12-24 05:02:00,
2013-12-24 00:03:00,70.2,69.8,30.02,South,180,0.0,0.0,99,0.00,,,0.00,meteohub,2013-12-24 05:03:00,
2013-12-24 00:04:00,70.2,69.8,30.02,South,180,0.0,0.0,99,0.00,,,0.00,meteohub,2013-12-24 05:04:00,
2013-12-24 00:05:00,70.2,69.8,30.02,South,180,0.0,0.0,99,0.00,,,0.00,meteohub,2013-12-24 05:05:00,
2013-12-24 00:10:00,70.3,70.0,30.01,South,180,0.0,0.0,99,0.00,,,0.00,meteohub,2013-12-24 05:10:00,
2013-12-24 00:15:00,70.3,70.0,30.02,South,180,0.0,1.0,99,0.00,,,0.00,meteohub,2013-12-24 05:15:00,
2013-12-24 00:20:00,70.2,69.8,30.02,South,180,0.0,1.0,99,0.00,,,0.00,meteohub,2013-12-24 05:20:00,
2013-12-24 00:25:00,70.2,69.8,30.02,South,180,0.0,0.0,99,0.00,,,0.00,meteohub,2013-12-24 05:25:00,
2013-12-24 00:31:00,70.2,69.8,30.02,South,180,0.0,0.0,99,0.00,,,0.00,meteohub,2013-12-24 05:31:00,
2013-12-24 00:36:00,70.2,69.8,30.02,South,180,0.0,0.0,99,0.00,,,0.00,meteohub,2013-12-24 05:36:00,
2013-12-24 00:41:00,70.2,69.8,30.02,South,180,0.0,0.0,99,0.00,,,0.00,meteohub,2013-12-24 05:41:00,
2013-12-24 00:46:00,69.8,69.4,30.01,South,180,0.0,0.0,99,0.00,,,0.00,meteohub,2013-12-24 05:46:00,
2013-12-24 00:51:00,69.8,69.4,30.02,South,180,0.0,0.0,99,0.00,,,0.00,meteohub,2013-12-24 05:51:00,
2013-12-24 00:56:00,69.6,69.3,30.01,SW,225,0.0,0.0,99,0.00,,,0.00,meteohub,2013-12-24 05:56:00,
2013-12-24 01:01:00,69.6,69.3,30.01,SW,225,0.0,0.0,99,0.00,,,0.00,meteohub,2013-12-24 06:01:00,
2013-12-24 01:06:00,69.4,69.1,30.02,NW,315,1.0,0.0,99,0.00,,,0.00,meteohub,2013-12-24 06:06:00,
2013-12-24 01:11:00,69.4,69.1,30.02,NW,315,1.0,1.0,99,0.00,,,0.00,meteohub,2013-12-24 06:11:00,
2013-12-24 01:16:00,69.4,69.1,30.01,West,270,0.0,1.0,99,0.00,,,0.00,meteohub,2013-12-24 06:16:00,
2013-12-24 01:22:00,69.3,68.9,30.01,West,270,0.0,1.0,99,0.00,,,0.00,meteohub,2013-12-24 06:22:00,
2013-12-24 01:27:00,69.4,69.1,30.01,West,270,0.0,1.0,99,0.00,,,0.00,meteohub,2013-12-24 06:27:00,
2013-12-24 01:32:00,69.4,69.1,30.02,South,180,0.0,0.0,99,0.00,,,0.00,meteohub,2013-12-24 06:32:00,
2013-12-24 01:37:00,69.4,69.1,30.01,South,180,0.0,0.0,99,0.00,,,0.00,meteohub,2013-12-24 06:37:00,
2013-12-24 01:42:00,69.4,69.1,30.01,South,180,0.0,0.0,99,0.00,,,0.00,meteohub,2013-12-24 06:42:00,
2013-12-24 01:47:00,69.3,68.9,30.01,South,180,0.0,0.0,99,0.00,,,0.00,meteohub,2013-12-24 06:47:00,
2013-12-24 01:52:00,69.3,68.9,30.01,South,180,0.0,0.0,99,0.00,,,0.00,meteohub,2013-12-24 06:52:00,
2013-12-24 01:57:00,69.3,68.9,30.00,South,180,0.0,0.0,99,0.00,,,0.00,meteohub,2013-12-24 06:57:00,
2013-12-24 02:02:00,69.3,68.9,30.01,South,180,0.0,0.0,99,0.00,,,0.00,meteohub,2013-12-24 07:02:00,
2013-12-24 02:07:00,69.1,68.7,30.01,NW,315,0.0,0.0,99,0.00,,,0.00,meteohub,2013-12-24 07:07:00,
2013-12-24 02:12:00,68.9,68.5,30.01,NW,315,0.0,1.0,99,0.00,,,0.00,meteohub,2013-12-24 07:12:00,
2013-12-24 02:17:00,68.9,68.5,30.01,West,270,0.0,1.0,99,0.00,,,0.00,meteohub,2013-12-24 07:17:00,
2013-12-24 02:22:00,68.7,68.4,30.00,West,270,0.0,1.0,99,0.00,,,0.00,meteohub,2013-12-24 07:22:00,
2013-12-24 02:27:00,68.7,68.4,30.00,West,270,0.0,1.0,99,0.00,,,0.00,meteohub,2013-12-24 07:27:00,
2013-12-24 02:32:00,68.7,68.4,30.01,West,270,0.0,1.0,99,0.00,,,0.00,meteohub,2013-12-24 07:32:00,
2013-12-24 02:37:00,68.5,68.2,30.01,West,270,0.0,0.0,99,0.00,,,0.00,meteohub,2013-12-24 07:37:00,
2013-12-24 02:42:00,68.5,68.2,30.01,West,270,0.0,0.0,99,0.00,,,0.00,meteohub,2013-12-24 07:42:00,
2013-12-24 02:47:00,68.5,68.2,30.01,West,270,0.0,0.0,99,0.00,,,0.00,meteohub,2013-12-24 07:47:00,
2013-12-24 02:52:00,68.5,68.2,30.01,West,270,0.0,0.0,99,0.00,,,0.00,meteohub,2013-12-24 07:52:00,
2013-12-24 02:57:00,68.7,68.4,30.00,West,270,0.0,0.0,99,0.00,,,0.00,meteohub,2013-12-24 07:57:00,
2013-12-24 03:02:00,68.5,68.2,30.00,West,270,0.0,0.0,99,0.00,,,0.00,meteohub,2013-12-24 08:02:00,
2013-12-24 03:07:00,68.5,68.2,30.00,West,270,0.0,0.0,99,0.00,,,0.00,meteohub,2013-12-24 08:07:00,
2013-12-24 03:12:00,68.5,68.2,30.00,West,270,0.0,0.0,99,0.00,,,0.00,meteohub,2013-12-24 08:12:00,
2013-12-24 03:17:00,68.4,68.0,30.00,West,270,0.0,0.0,99,0.00,,,0.00,meteohub,2013-12-24 08:17:00,
2013-12-24 03:22:00,68.5,68.2,30.00,West,270,0.0,0.0,99,0.00,,,0.00,meteohub,2013-12-24 08:22:00,
2013-12-24 03:27:00,68.4,68.0,30.00,West,270,0.0,0.0,99,0.00,,,0.00,meteohub,2013-12-24 08:27:00,
2013-12-24 03:32:00,68.2,67.8,29.99,West,270,0.0,0.0,99,0.00,,,0.00,meteohub,2013-12-24 08:32:00,
2013-12-24 03:37:00,68.0,67.6,30.00,West,270,0.0,0.0,99,0.00,,,0.00,meteohub,2013-12-24 08:37:00,
2013-12-24 03:42:00,68.0,67.6,30.00,West,270,0.0,0.0,99,0.00,,,0.00,meteohub,2013-12-24 08:42:00,
2013-12-24 03:47:00,68.2,67.8,30.00,West,270,0.0,1.0,99,0.00,,,0.00,meteohub,2013-12-24 08:47:00,
2013-12-24 03:52:00,68.2,67.8,30.00,West,270,0.0,1.0,99,0.00,,,0.00,meteohub,2013-12-24 08:52:00,
2013-12-24 03:57:00,68.0,67.6,30.00,West,270,0.0,1.0,99,0.00,,,0.00,meteohub,2013-12-24 08:57:00,
2013-12-24 04:02:00,68.2,67.8,30.00,South,180,0.0,1.0,99,0.00,,,0.00,meteohub,2013-12-24 09:02:00,
2013-12-24 04:07:00,68.2,67.8,29.99,South,180,0.0,1.0,99,0.00,,,0.00,meteohub,2013-12-24 09:07:00,
2013-12-24 04:12:00,68.0,67.6,29.99,South,180,0.0,1.0,99,0.00,,,0.00,meteohub,2013-12-24 09:12:00,
2013-12-24 04:17:00,68.0,67.6,29.99,South,180,0.0,0.0,99,0.00,,,0.00,meteohub,2013-12-24 09:17:00,
2013-12-24 04:22:00,68.0,67.6,30.00,South,180,0.0,0.0,99,0.00,,,0.00,meteohub,2013-12-24 09:22:00,
2013-12-24 04:27:00,67.8,67.5,29.99,South,180,0.0,0.0,99,0.00,,,0.00,meteohub,2013-12-24 09:27:00,
2013-12-24 04:32:00,68.0,67.6,29.99,South,180,0.0,0.0,99,0.00,,,0.00,meteohub,2013-12-24 09:32:00,
2013-12-24 04:37:00,68.0,67.6,29.99,South,180,0.0,0.0,99,0.00,,,0.00,meteohub,2013-12-24 09:37:00,
2013-12-24 04:42:00,67.6,67.3,29.99,South,180,0.0,0.0,99,0.00,,,0.00,meteohub,2013-12-24 09:42:00,
2013-12-24 04:47:00,67.5,67.1,29.99,South,180,0.0,0.0,99,0.00,,,0.00,meteohub,2013-12-24 09:47:00,
2013-12-24 04:52:00,67.3,66.9,30.00,South,180,0.0,0.0,99,0.00,,,0.00,meteohub,2013-12-24 09:52:00,
2013-12-24 04:57:00,67.1,66.7,30.00,South,180,0.0,0.0,99,0.00,,,0.00,meteohub,2013-12-24 09:57:00,
2013-12-24 05:02:00,67.3,66.9,29.99,South,180,0.0,0.0,99,0.00,,,0.00,meteohub,2013-12-24 10:02:00,
2013-12-24 05:07:00,67.5,67.1,30.00,South,180,0.0,0.0,99,0.00,,,0.00,meteohub,2013-12-24 10:07:00,
2013-12-24 05:12:00,67.6,67.3,30.00,South,180,0.0,0.0,99,0.00,,,0.00,meteohub,2013-12-24 10:12:00,
2013-12-24 05:18:00,67.6,67.3,30.00,South,180,0.0,0.0,99,0.00,,,0.00,meteohub,2013-12-24 10:18:00,
2013-12-24 05:23:00,68.0,67.6,30.00,South,180,0.0,0.0,99,0.00,,,0.00,meteohub,2013-12-24 10:23:00,
2013-12-24 05:28:00,68.0,67.6,30.01,South,180,0.0,0.0,99,0.00,,,0.00,meteohub,2013-12-24 10:28:00,
2013-12-24 05:33:00,68.0,67.6,30.00,South,180,0.0,0.0,99,0.00,,,0.00,meteohub,2013-12-24 10:33:00,
2013-12-24 05:38:00,67.8,67.5,30.00,South,180,0.0,0.0,99,0.00,,,0.00,meteohub,2013-12-24 10:38:00,
2013-12-24 05:43:00,67.8,67.5,30.01,South,180,0.0,0.0,99,0.00,,,0.00,meteohub,2013-12-24 10:43:00,
2013-12-24 05:48:00,68.0,67.6,30.01,South,180,0.0,0.0,99,0.00,,,0.00,meteohub,2013-12-24 10:48:00,
2013-12-24 05:53:00,68.2,67.8,30.01,South,180,0.0,0.0,99,0.00,,,0.00,meteohub,2013-12-24 10:53:00,
2013-12-24 05:59:00,68.0,67.6,30.01,South,180,0.0,0.0,99,0.00,,,0.00,meteohub,2013-12-24 10:59:00,
2013-12-24 06:04:00,68.0,67.6,30.01,South,180,0.0,0.0,99,0.00,,,0.00,meteohub,2013-12-24 11:04:00,
2013-12-24 06:09:00,67.8,67.5,30.01,South,180,0.0,0.0,99,0.00,,,0.00,meteohub,2013-12-24 11:09:00,
2013-12-24 06:15:00,67.8,67.5,30.01,South,180,0.0,0.0,99,0.00,,,0.00,meteohub,2013-12-24 11:15:00,
2013-12-24 06:20:00,67.5,67.1,30.02,South,180,0.0,0.0,99,0.00,,,0.00,meteohub,2013-12-24 11:20:00,
2013-12-24 06:25:00,67.3,66.9,30.01,West,270,1.0,0.0,99,0.00,,,0.00,meteohub,2013-12-24 11:25:00,
2013-12-24 06:30:00,67.3,66.9,30.02,West,270,0.0,0.0,99,0.00,,,0.00,meteohub,2013-12-24 11:30:00,
2013-12-24 06:35:00,67.6,67.3,30.02,West,270,0.0,1.0,99,0.00,,,0.00,meteohub,2013-12-24 11:35:00,
2013-12-24 06:40:00,68.0,67.6,30.02,NW,315,1.0,1.0,99,0.00,,,0.00,meteohub,2013-12-24 11:40:00,
2013-12-24 06:45:00,68.2,67.8,30.02,NW,315,1.0,1.0,99,0.00,,,0.00,meteohub,2013-12-24 11:45:00,
2013-12-24 06:51:00,68.4,68.0,30.02,NW,315,1.0,1.0,99,0.00,,,0.00,meteohub,2013-12-24 11:51:00,
2013-12-24 06:56:00,68.4,68.0,30.03,NW,315,0.0,1.0,99,0.00,,,0.00,meteohub,2013-12-24 11:56:00,
2013-12-24 07:01:00,68.5,68.2,30.03,NW,315,0.0,1.0,99,0.00,,,0.00,meteohub,2013-12-24 12:01:00,
2013-12-24 07:06:00,68.4,68.0,30.03,NW,315,0.0,1.0,99,0.00,,,0.00,meteohub,2013-12-24 12:06:00,
2013-12-24 07:11:00,68.4,68.0,30.03,SW,225,0.0,1.0,99,0.00,,,0.00,meteohub,2013-12-24 12:11:00,
2013-12-24 07:17:00,68.5,68.2,30.03,SW,225,0.0,1.0,99,0.00,,,0.00,meteohub,2013-12-24 12:17:00,
2013-12-24 07:22:00,68.5,68.2,30.03,East,90,0.0,2.0,99,0.01,,,0.01,meteohub,2013-12-24 12:22:00,
2013-12-24 07:27:00,68.7,68.4,30.03,East,90,0.0,2.0,99,0.01,,,0.01,meteohub,2013-12-24 12:27:00,
2013-12-24 07:32:00,69.3,68.9,30.04,East,90,0.0,2.0,99,0.01,,,0.01,meteohub,2013-12-24 12:32:00,
2013-12-24 07:37:00,70.0,69.6,30.04,East,90,0.0,1.0,99,0.01,,,0.01,meteohub,2013-12-24 12:37:00,
2013-12-24 07:42:00,70.9,70.5,30.04,East,90,0.0,1.0,99,0.01,,,0.01,meteohub,2013-12-24 12:42:00,
2013-12-24 07:47:00,71.8,71.4,30.04,East,90,0.0,0.0,99,0.01,,,0.01,meteohub,2013-12-24 12:47:00,
2013-12-24 07:52:00,72.9,72.5,30.04,East,90,1.0,0.0,99,0.01,,,0.01,meteohub,2013-12-24 12:52:00,
2013-12-24 07:57:00,72.5,72.1,30.04,East,90,0.0,1.0,99,0.01,,,0.01,meteohub,2013-12-24 12:57:00,
2013-12-24 08:02:00,73.2,72.9,30.04,East,90,0.0,1.0,99,0.01,,,0.01,meteohub,2013-12-24 13:02:00,
2013-12-24 08:07:00,74.3,73.9,30.04,NW,315,0.0,1.0,99,0.01,,,0.01,meteohub,2013-12-24 13:07:00,
2013-12-24 08:12:00,75.7,75.4,30.04,NW,315,0.0,1.0,99,0.01,,,0.01,meteohub,2013-12-24 13:12:00,
2013-12-24 08:17:00,75.2,74.8,30.04,East,90,2.0,0.0,99,0.01,,,0.01,meteohub,2013-12-24 13:17:00,
2013-12-24 08:22:00,75.0,74.7,30.04,East,90,1.0,2.0,99,0.00,,,0.01,meteohub,2013-12-24 13:22:00,
2013-12-24 08:27:00,74.8,74.5,30.05,South,180,1.0,2.0,99,0.00,,,0.01,meteohub,2013-12-24 13:27:00,
2013-12-24 08:32:00,74.5,74.1,30.04,North,0,2.0,2.0,99,0.00,,,0.01,meteohub,2013-12-24 13:32:00,
2013-12-24 08:37:00,74.3,73.9,30.04,NW,315,2.0,2.0,99,0.00,,,0.01,meteohub,2013-12-24 13:37:00,
2013-12-24 08:42:00,74.3,73.9,30.04,West,270,2.0,2.0,99,0.00,,,0.01,meteohub,2013-12-24 13:42:00,
2013-12-24 08:48:00,74.5,74.1,30.04,North,0,1.0,2.0,99,0.00,,,0.01,meteohub,2013-12-24 13:48:00,
2013-12-24 08:53:00,74.5,74.1,30.05,NW,315,1.0,2.0,99,0.00,,,0.01,meteohub,2013-12-24 13:53:00,
2013-12-24 08:58:00,74.7,74.3,30.05,SW,225,2.0,2.0,99,0.00,,,0.01,meteohub,2013-12-24 13:58:00,
2013-12-24 09:03:00,75.2,74.8,30.05,West,270,1.0,2.0,99,0.00,,,0.01,meteohub,2013-12-24 14:03:00,
2013-12-24 09:08:00,75.6,75.2,30.05,NW,315,1.0,2.0,99,0.00,,,0.01,meteohub,2013-12-24 14:08:00,
2013-12-24 09:13:00,75.7,75.4,30.05,NW,315,2.0,4.0,99,0.00,,,0.01,meteohub,2013-12-24 14:13:00,
2013-12-24 09:18:00,76.1,75.7,30.06,NW,315,2.0,4.0,99,0.00,,,0.01,meteohub,2013-12-24 14:18:00,
2013-12-24 09:23:00,76.3,75.9,30.05,NW,315,2.0,4.0,99,0.00,,,0.01,meteohub,2013-12-24 14:23:00,
2013-12-24 09:28:00,77.7,77.4,30.06,SW,225,2.0,3.0,99,0.00,,,0.01,meteohub,2013-12-24 14:28:00,
2013-12-24 09:33:00,78.8,78.4,30.06,NW,315,2.0,4.0,99,0.00,,,0.01,meteohub,2013-12-24 14:33:00,
2013-12-24 09:38:00,80.1,79.7,30.06,SW,225,3.0,4.0,99,0.00,,,0.01,meteohub,2013-12-24 14:38:00,
2013-12-24 09:44:00,80.8,79.2,30.06,SW,225,2.0,4.0,95,0.00,,,0.01,meteohub,2013-12-24 14:44:00,
2013-12-24 09:49:00,81.1,77.2,30.06,SW,225,4.0,4.0,88,0.00,,,0.01,meteohub,2013-12-24 14:49:00,
2013-12-24 09:54:00,81.1,76.5,30.05,South,180,2.0,4.0,86,0.00,,,0.01,meteohub,2013-12-24 14:54:00,
2013-12-24 09:59:00,81.5,76.5,30.05,SW,225,4.0,4.0,85,0.00,,,0.01,meteohub,2013-12-24 14:59:00,
2013-12-24 10:04:00,82.0,75.2,30.05,West,270,2.0,4.0,80,0.00,,,0.01,meteohub,2013-12-24 15:04:00,
2013-12-24 10:09:00,82.8,75.2,30.05,SW,225,5.0,5.0,78,0.00,,,0.01,meteohub,2013-12-24 15:09:00,
2013-12-24 10:14:00,82.8,74.8,30.05,SW,225,5.0,5.0,77,0.00,,,0.01,meteohub,2013-12-24 15:14:00,
2013-12-24 10:19:00,82.6,74.7,30.05,SW,225,2.0,5.0,77,0.00,,,0.01,meteohub,2013-12-24 15:19:00,
2013-12-24 10:24:00,83.1,74.3,30.05,NW,315,4.0,5.0,75,0.00,,,0.01,meteohub,2013-12-24 15:24:00,
2013-12-24 10:30:00,83.7,74.1,30.04,SW,225,1.0,5.0,73,0.00,,,0.01,meteohub,2013-12-24 15:30:00,
2013-12-24 10:35:00,83.8,74.3,30.04,SW,225,1.0,5.0,73,0.00,,,0.01,meteohub,2013-12-24 15:35:00,
2013-12-24 10:40:00,84.9,74.5,30.04,SW,225,2.0,4.0,71,0.00,,,0.01,meteohub,2013-12-24 15:40:00,
2013-12-24 10:45:00,86.0,73.8,30.04,SW,225,3.0,3.0,67,0.00,,,0.01,meteohub,2013-12-24 15:45:00,
2013-12-24 10:50:00,84.9,72.3,30.04,NW,315,2.0,3.0,66,0.00,,,0.01,meteohub,2013-12-24 15:50:00,
2013-12-24 10:55:00,85.5,72.9,30.04,West,270,1.0,8.0,66,0.00,,,0.01,meteohub,2013-12-24 15:55:00,
2013-12-24 11:00:00,85.6,71.6,30.04,North,0,4.0,8.0,63,0.00,,,0.01,meteohub,2013-12-24 16:00:00,
2013-12-24 11:05:00,85.3,71.2,30.04,SW,225,3.0,7.0,63,0.00,,,0.01,meteohub,2013-12-24 16:05:00,
2013-12-24 11:11:00,84.6,71.1,30.04,West,270,1.0,5.0,64,0.00,,,0.01,meteohub,2013-12-24 16:11:00,
2013-12-24 11:16:00,85.6,71.1,30.03,SW,225,2.0,5.0,62,0.00,,,0.01,meteohub,2013-12-24 16:16:00,
2013-12-24 11:21:00,85.6,70.2,30.03,NW,315,2.0,5.0,60,0.00,,,0.01,meteohub,2013-12-24 16:21:00,
2013-12-24 11:26:00,85.8,70.9,30.02,SW,225,1.0,4.0,61,0.00,,,0.01,meteohub,2013-12-24 16:26:00,
2013-12-24 11:31:00,86.2,71.1,30.03,NW,315,2.0,4.0,61,0.00,,,0.01,meteohub,2013-12-24 16:31:00,
2013-12-24 11:36:00,85.6,69.1,30.02,North,0,3.0,4.0,58,0.00,,,0.01,meteohub,2013-12-24 16:36:00,
2013-12-24 11:41:00,84.7,69.8,30.02,South,180,2.0,4.0,61,0.00,,,0.01,meteohub,2013-12-24 16:41:00,
2013-12-24 11:46:00,85.6,69.6,30.01,SW,225,4.0,4.0,59,0.00,,,0.01,meteohub,2013-12-24 16:46:00,
2013-12-24 11:51:00,86.0,68.9,30.01,SW,225,4.0,4.0,57,0.00,,,0.01,meteohub,2013-12-24 16:51:00,
2013-12-24 11:57:00,86.2,68.7,30.01,West,270,3.0,4.0,56,0.00,,,0.01,meteohub,2013-12-24 16:57:00,
2013-12-24 12:02:00,86.4,67.3,30.00,SW,225,2.0,4.0,53,0.00,,,0.01,meteohub,2013-12-24 17:02:00,
2013-12-24 12:07:00,86.4,67.8,30.01,SW,225,5.0,5.0,54,0.00,,,0.01,meteohub,2013-12-24 17:07:00,
2013-12-24 12:12:00,85.8,68.9,30.00,NW,315,2.0,5.0,57,0.00,,,0.01,meteohub,2013-12-24 17:12:00,
2013-12-24 12:17:00,85.6,68.2,30.00,NW,315,2.0,5.0,56,0.00,,,0.01,meteohub,2013-12-24 17:17:00,
2013-12-24 12:22:00,86.2,67.1,29.99,North,0,2.0,5.0,53,0.00,,,0.01,meteohub,2013-12-24 17:22:00,
2013-12-24 12:27:00,86.9,66.6,29.99,SW,225,2.0,4.0,51,0.00,,,0.01,meteohub,2013-12-24 17:27:00,
2013-12-24 12:32:00,87.3,67.5,29.99,West,270,3.0,4.0,52,0.00,,,0.01,meteohub,2013-12-24 17:32:00,
2013-12-24 12:37:00,86.5,66.7,29.99,West,270,2.0,4.0,52,0.00,,,0.01,meteohub,2013-12-24 17:37:00,
2013-12-24 12:42:00,86.5,68.0,29.98,East,90,1.0,4.0,54,0.00,,,0.01,meteohub,2013-12-24 17:42:00,
2013-12-24 12:47:00,88.2,67.8,29.98,WNW,293,3.0,4.0,51,0.00,,,0.01,meteohub,2013-12-24 17:47:00,
2013-12-24 12:52:00,88.0,67.6,29.97,SW,225,5.0,5.0,51,0.00,,,0.01,meteohub,2013-12-24 17:52:00,
2013-12-24 12:57:00,86.9,66.6,29.97,NW,315,2.0,5.0,51,0.00,,,0.01,meteohub,2013-12-24 17:57:00,
2013-12-24 13:02:00,85.8,69.3,29.97,WNW,293,11.0,11.0,58,0.00,,,0.01,meteohub,2013-12-24 18:02:00,
2013-12-24 13:07:00,82.4,71.2,29.98,West,270,6.0,11.0,69,0.00,,,0.01,meteohub,2013-12-24 18:07:00,
2013-12-24 13:12:00,81.0,71.4,29.97,North,0,11.0,11.0,73,0.00,,,0.01,meteohub,2013-12-24 18:12:00,
2013-12-24 13:17:00,80.8,71.8,29.97,West,270,3.0,11.0,74,0.00,,,0.01,meteohub,2013-12-24 18:17:00,
2013-12-24 13:22:00,80.4,71.8,29.97,NW,315,2.0,11.0,75,0.00,,,0.01,meteohub,2013-12-24 18:22:00,
2013-12-24 13:27:00,80.4,71.4,29.97,North,0,4.0,11.0,74,0.00,,,0.01,meteohub,2013-12-24 18:27:00,
2013-12-24 13:32:00,79.9,70.9,29.97,West,270,11.0,11.0,74,0.00,,,0.01,meteohub,2013-12-24 18:32:00,
2013-12-24 13:37:00,79.7,71.1,29.97,NW,315,4.0,11.0,75,0.00,,,0.01,meteohub,2013-12-24 18:37:00,
2013-12-24 13:42:00,79.7,70.7,29.96,NW,315,6.0,11.0,74,0.00,,,0.01,meteohub,2013-12-24 18:42:00,
2013-12-24 13:47:00,79.5,70.9,29.96,NW,315,5.0,11.0,75,0.00,,,0.01,meteohub,2013-12-24 18:47:00,
2013-12-24 13:52:00,80.6,71.6,29.96,NW,315,5.0,8.0,74,0.00,,,0.01,meteohub,2013-12-24 18:52:00,
2013-12-24 13:57:00,81.1,70.9,29.96,NW,315,3.0,8.0,71,0.00,,,0.01,meteohub,2013-12-24 18:57:00,
2013-12-24 14:02:00,81.5,71.2,29.96,North,0,8.0,8.0,71,0.00,,,0.01,meteohub,2013-12-24 19:02:00,
2013-12-24 14:07:00,84.0,71.1,29.96,NW,315,8.0,8.0,65,0.00,,,0.01,meteohub,2013-12-24 19:07:00,
2013-12-24 14:12:00,82.9,70.3,29.96,West,270,4.0,8.0,66,0.00,,,0.01,meteohub,2013-12-24 19:12:00,
2013-12-24 14:17:00,81.9,70.3,29.96,NW,315,9.0,9.0,68,0.00,,,0.01,meteohub,2013-12-24 19:17:00,
2013-12-24 14:22:00,81.0,70.7,29.96,NW,315,8.0,9.0,71,0.00,,,0.01,meteohub,2013-12-24 19:22:00,
2013-12-24 14:27:00,80.6,70.7,29.96,West,270,7.0,9.0,72,0.00,,,0.01,meteohub,2013-12-24 19:27:00,
2013-12-24 14:32:00,80.8,70.5,29.96,NW,315,4.0,9.0,71,0.00,,,0.01,meteohub,2013-12-24 19:32:00,
2013-12-24 14:37:00,81.0,71.1,29.96,West,270,2.0,8.0,72,0.00,,,0.01,meteohub,2013-12-24 19:37:00,
2013-12-24 14:42:00,81.0,70.7,29.96,NW,315,3.0,8.0,71,0.00,,,0.01,meteohub,2013-12-24 19:42:00,
2013-12-24 14:47:00,81.9,71.1,29.95,NW,315,6.0,6.0,70,0.00,,,0.01,meteohub,2013-12-24 19:47:00,
2013-12-24 14:52:00,81.5,70.7,29.96,WNW,293,3.0,7.0,70,0.00,,,0.01,meteohub,2013-12-24 19:52:00,
2013-12-24 14:57:00,80.8,70.5,29.96,NW,315,6.0,8.0,71,0.00,,,0.01,meteohub,2013-12-24 19:57:00,
2013-12-24 15:02:00,80.2,70.3,29.96,NW,315,4.0,8.0,72,0.00,,,0.01,meteohub,2013-12-24 20:02:00,
2013-12-24 15:07:00,79.9,70.5,29.96,NE,45,4.0,8.0,73,0.00,,,0.01,meteohub,2013-12-24 20:07:00,
2013-12-24 15:12:00,79.7,69.8,29.95,NW,315,2.0,8.0,72,0.00,,,0.01,meteohub,2013-12-24 20:12:00,
2013-12-24 15:17:00,79.5,69.6,29.95,West,270,4.0,8.0,72,0.00,,,0.01,meteohub,2013-12-24 20:17:00,
2013-12-24 15:22:00,79.7,69.8,29.95,West,270,3.0,8.0,72,0.00,,,0.01,meteohub,2013-12-24 20:22:00,
2013-12-24 15:27:00,79.5,69.6,29.95,West,270,5.0,7.0,72,0.00,,,0.01,meteohub,2013-12-24 20:27:00,
2013-12-24 15:32:00,79.5,70.2,29.95,NW,315,2.0,7.0,73,0.00,,,0.01,meteohub,2013-12-24 20:32:00,
2013-12-24 15:37:00,79.5,70.2,29.95,North,0,8.0,8.0,73,0.00,,,0.01,meteohub,2013-12-24 20:37:00,
2013-12-24 15:42:00,79.3,70.7,29.95,NW,315,2.0,8.0,75,0.00,,,0.01,meteohub,2013-12-24 20:42:00,
2013-12-24 15:47:00,78.4,69.8,29.96,North,0,4.0,8.0,75,0.00,,,0.01,meteohub,2013-12-24 20:47:00,
2013-12-24 15:52:00,77.5,69.8,29.96,North,0,2.0,11.0,77,0.00,,,0.01,meteohub,2013-12-24 20:52:00,
2013-12-24 15:57:00,77.2,69.8,29.95,North,0,7.0,11.0,78,0.00,,,0.01,meteohub,2013-12-24 20:57:00,
2013-12-24 16:02:00,76.6,69.6,29.96,East,90,4.0,11.0,79,0.00,,,0.01,meteohub,2013-12-24 21:02:00,
2013-12-24 16:07:00,75.9,69.3,29.96,NW,315,5.0,8.0,80,0.00,,,0.01,meteohub,2013-12-24 21:07:00,
2013-12-24 16:12:00,75.7,69.1,29.96,North,0,9.0,9.0,80,0.00,,,0.01,meteohub,2013-12-24 21:12:00,
2013-12-24 16:17:00,75.7,69.1,29.96,North,0,6.0,9.0,80,0.00,,,0.01,meteohub,2013-12-24 21:17:00,
2013-12-24 16:22:00,75.7,69.1,29.97,North,0,7.0,9.0,80,0.00,,,0.01,meteohub,2013-12-24 21:22:00,
2013-12-24 16:27:00,75.4,69.1,29.97,NW,315,2.0,11.0,81,0.00,,,0.01,meteohub,2013-12-24 21:27:00,
2013-12-24 16:32:00,75.2,68.9,29.97,North,0,3.0,11.0,81,0.00,,,0.01,meteohub,2013-12-24 21:32:00,
2013-12-24 16:37:00,75.0,69.1,29.97,NE,45,3.0,11.0,82,0.00,,,0.01,meteohub,2013-12-24 21:37:00,
2013-12-24 16:42:00,74.5,68.2,29.97,North,0,2.0,9.0,81,0.00,,,0.01,meteohub,2013-12-24 21:42:00,
2013-12-24 16:47:00,74.3,68.0,29.98,North,0,6.0,11.0,81,0.00,,,0.01,meteohub,2013-12-24 21:47:00,
2013-12-24 16:52:00,74.1,68.2,29.97,North,0,4.0,11.0,82,0.00,,,0.01,meteohub,2013-12-24 21:52:00,
2013-12-24 16:57:00,73.9,68.2,29.98,North,0,4.0,8.0,82,0.00,,,0.01,meteohub,2013-12-24 21:57:00,
2013-12-24 17:02:00,74.1,68.2,29.98,North,0,2.0,8.0,82,0.00,,,0.01,meteohub,2013-12-24 22:02:00,
2013-12-24 17:07:00,73.8,68.0,29.98,North,0,5.0,7.0,82,0.00,,,0.01,meteohub,2013-12-24 22:07:00,
2013-12-24 17:12:00,73.4,68.0,29.98,NW,315,8.0,11.0,83,0.00,,,0.01,meteohub,2013-12-24 22:12:00,
2013-12-24 17:17:00,73.0,67.6,29.98,North,0,5.0,11.0,83,0.00,,,0.01,meteohub,2013-12-24 22:17:00,
2013-12-24 17:22:00,72.7,67.6,29.99,North,0,4.0,11.0,84,0.00,,,0.01,meteohub,2013-12-24 22:22:00,
2013-12-24 17:27:00,72.3,67.3,29.98,North,0,7.0,10.0,84,0.00,,,0.01,meteohub,2013-12-24 22:27:00,
2013-12-24 17:32:00,72.3,67.6,29.98,North,0,10.0,10.0,85,0.00,,,0.01,meteohub,2013-12-24 22:32:00,
2013-12-24 17:37:00,71.8,67.1,29.99,North,0,6.0,10.0,85,0.00,,,0.01,meteohub,2013-12-24 22:37:00,
2013-12-24 17:42:00,71.4,67.1,29.99,North,0,8.0,11.0,86,0.00,,,0.01,meteohub,2013-12-24 22:42:00,
2013-12-24 17:47:00,71.2,66.9,29.99,NW,315,4.0,11.0,86,0.00,,,0.01,meteohub,2013-12-24 22:47:00,
2013-12-24 17:52:00,70.9,66.7,29.99,NW,315,2.0,11.0,87,0.00,,,0.01,meteohub,2013-12-24 22:52:00,
2013-12-24 17:57:00,70.7,66.6,30.00,NW,315,3.0,9.0,87,0.00,,,0.01,meteohub,2013-12-24 22:57:00,
2013-12-24 18:02:00,70.3,66.2,30.01,NW,315,5.0,8.0,87,0.00,,,0.01,meteohub,2013-12-24 23:02:00,
2013-12-24 18:07:00,69.8,65.5,30.00,North,0,8.0,11.0,86,0.00,,,0.01,meteohub,2013-12-24 23:07:00,
2013-12-24 18:12:00,69.4,64.8,30.01,NE,45,8.0,12.0,85,0.00,,,0.01,meteohub,2013-12-24 23:12:00,
2013-12-24 18:17:00,69.3,64.6,30.00,NW,315,4.0,12.0,85,0.00,,,0.01,meteohub,2013-12-24 23:17:00,
2013-12-24 18:22:00,69.3,64.6,30.01,North,0,5.0,11.0,85,0.00,,,0.01,meteohub,2013-12-24 23:22:00,
2013-12-24 18:27:00,69.3,64.6,30.01,West,270,4.0,11.0,85,0.00,,,0.01,meteohub,2013-12-24 23:27:00,
2013-12-24 18:32:00,69.1,64.4,30.01,NW,315,1.0,11.0,85,0.00,,,0.01,meteohub,2013-12-24 23:32:00,
2013-12-24 18:37:00,68.9,63.9,30.01,NE,45,7.0,8.0,84,0.00,,,0.01,meteohub,2013-12-24 23:37:00,
2013-12-24 18:42:00,68.7,63.7,30.01,North,0,5.0,9.0,84,0.00,,,0.01,meteohub,2013-12-24 23:42:00,
2013-12-24 18:47:00,68.7,63.3,30.02,North,0,8.0,9.0,83,0.00,,,0.01,meteohub,2013-12-24 23:47:00,
2013-12-24 18:52:00,68.7,63.3,30.01,North,0,1.0,9.0,83,0.00,,,0.01,meteohub,2013-12-24 23:52:00,
2013-12-24 18:57:00,68.5,63.1,30.02,North,0,1.0,8.0,83,0.00,,,0.01,meteohub,2013-12-24 23:57:00,
2013-12-24 19:02:00,68.4,63.0,30.02,North,0,6.0,8.0,83,0.00,,,0.01,meteohub,2013-12-25 00:02:00,
2013-12-24 19:07:00,68.4,63.0,30.02,NW,315,5.0,8.0,83,0.00,,,0.00,meteohub,2013-12-25 00:07:00,
2013-12-24 19:12:00,68.4,63.0,30.02,North,0,2.0,8.0,83,0.00,,,0.00,meteohub,2013-12-25 00:12:00,
2013-12-24 19:17:00,68.4,63.0,30.03,NW,315,4.0,8.0,83,0.00,,,0.00,meteohub,2013-12-25 00:17:00,
2013-12-24 19:22:00,68.4,62.6,30.02,NW,315,5.0,8.0,82,0.00,,,0.00,meteohub,2013-12-25 00:22:00,
2013-12-24 19:27:00,68.4,62.2,30.02,North,0,3.0,8.0,81,0.00,,,0.00,meteohub,2013-12-25 00:27:00,
2013-12-24 19:32:00,68.4,62.2,30.03,North,0,7.0,8.0,81,0.00,,,0.00,meteohub,2013-12-25 00:32:00,
2013-12-24 19:37:00,68.4,62.2,30.02,North,0,4.0,8.0,81,0.00,,,0.00,meteohub,2013-12-25 00:37:00,
2013-12-24 19:42:00,68.4,62.2,30.03,North,0,2.0,7.0,81,0.00,,,0.00,meteohub,2013-12-25 00:42:00,
2013-12-24 19:47:00,68.4,61.9,30.02,North,0,3.0,7.0,80,0.00,,,0.00,meteohub,2013-12-25 00:47:00,
2013-12-24 19:52:00,68.4,61.9,30.03,North,0,2.0,7.0,80,0.00,,,0.00,meteohub,2013-12-25 00:52:00,
2013-12-24 19:57:00,68.4,61.9,30.02,NW,315,2.0,4.0,80,0.00,,,0.00,meteohub,2013-12-25 00:57:00,
2013-12-24 20:02:00,68.4,61.5,30.03,North,0,2.0,5.0,79,0.00,,,0.00,meteohub,2013-12-25 01:02:00,
2013-12-24 20:07:00,68.5,61.7,30.02,North,0,2.0,6.0,79,0.00,,,0.00,meteohub,2013-12-25 01:07:00,
2013-12-24 20:12:00,68.5,61.3,30.03,North,0,5.0,6.0,78,0.00,,,0.00,meteohub,2013-12-25 01:12:00,
2013-12-24 20:17:00,68.5,61.3,30.03,North,0,3.0,8.0,78,0.00,,,0.00,meteohub,2013-12-25 01:17:00,
2013-12-24 20:22:00,68.5,61.3,30.03,North,0,5.0,8.0,78,0.00,,,0.00,meteohub,2013-12-25 01:22:00,
2013-12-24 20:27:00,68.5,61.3,30.03,North,0,2.0,8.0,78,0.00,,,0.00,meteohub,2013-12-25 01:27:00,
2013-12-24 20:32:00,68.5,61.3,30.03,North,0,1.0,5.0,78,0.00,,,0.00,meteohub,2013-12-25 01:32:00,
2013-12-24 20:37:00,68.5,61.3,30.03,NW,315,5.0,5.0,78,0.00,,,0.00,meteohub,2013-12-25 01:37:00,
2013-12-24 20:42:00,68.5,61.3,30.03,NW,315,4.0,5.0,78,0.00,,,0.00,meteohub,2013-12-25 01:42:00,
2013-12-24 20:47:00,68.5,61.3,30.03,NW,315,2.0,5.0,78,0.00,,,0.00,meteohub,2013-12-25 01:47:00,
2013-12-24 20:52:00,68.5,61.3,30.03,NW,315,2.0,6.0,78,0.00,,,0.00,meteohub,2013-12-25 01:52:00,
2013-12-24 20:57:00,68.5,61.3,30.03,NW,315,2.0,6.0,78,0.00,,,0.00,meteohub,2013-12-25 01:57:00,
2013-12-24 21:02:00,68.5,61.3,30.02,NW,315,5.0,5.0,78,0.00,,,0.00,meteohub,2013-12-25 02:02:00,
2013-12-24 21:07:00,68.4,61.5,30.03,NW,315,2.0,5.0,79,0.00,,,0.00,meteohub,2013-12-25 02:07:00,
2013-12-24 21:12:00,68.4,61.5,30.03,North,0,3.0,8.0,79,0.00,,,0.00,meteohub,2013-12-25 02:12:00,
2013-12-24 21:17:00,68.4,61.5,30.02,NE,45,6.0,8.0,79,0.00,,,0.00,meteohub,2013-12-25 02:17:00,
2013-12-24 21:22:00,68.2,61.3,30.02,North,0,5.0,8.0,79,0.00,,,0.00,meteohub,2013-12-25 02:22:00,
2013-12-24 21:27:00,68.2,61.3,30.02,NW,315,3.0,7.0,79,0.00,,,0.00,meteohub,2013-12-25 02:27:00,
2013-12-24 21:32:00,68.2,61.3,30.02,NW,315,5.0,8.0,79,0.00,,,0.00,meteohub,2013-12-25 02:32:00,
2013-12-24 21:37:00,68.0,61.5,30.02,North,0,4.0,8.0,80,0.00,,,0.00,meteohub,2013-12-25 02:37:00,
2013-12-24 21:42:00,68.0,61.5,30.03,West,270,2.0,8.0,80,0.00,,,0.00,meteohub,2013-12-25 02:42:00,
2013-12-24 21:47:00,67.8,61.3,30.02,NW,315,3.0,7.0,80,0.00,,,0.00,meteohub,2013-12-25 02:47:00,
2013-12-24 21:52:00,67.6,61.5,30.02,NW,315,4.0,4.0,81,0.00,,,0.00,meteohub,2013-12-25 02:52:00,
2013-12-24 21:57:00,67.6,61.5,30.02,North,0,2.0,4.0,81,0.00,,,0.00,meteohub,2013-12-25 02:57:00,
2013-12-24 22:02:00,67.5,61.3,30.02,North,0,2.0,4.0,81,0.00,,,0.00,meteohub,2013-12-25 03:02:00,
2013-12-24 22:07:00,67.5,61.3,30.03,North,0,2.0,4.0,81,0.00,,,0.00,meteohub,2013-12-25 03:07:00,
2013-12-24 22:12:00,67.5,61.3,30.03,North,0,2.0,3.0,81,0.00,,,0.00,meteohub,2013-12-25 03:12:00,
2013-12-24 22:17:00,67.6,61.5,30.02,North,0,3.0,3.0,81,0.00,,,0.00,meteohub,2013-12-25 03:17:00,
2013-12-24 22:22:00,67.8,61.7,30.02,North,0,4.0,4.0,81,0.00,,,0.00,meteohub,2013-12-25 03:22:00,
2013-12-24 22:27:00,67.8,61.7,30.03,North,0,3.0,4.0,81,0.00,,,0.00,meteohub,2013-12-25 03:27:00,
2013-12-24 22:32:00,67.8,61.7,30.03,North,0,3.0,4.0,81,0.00,,,0.00,meteohub,2013-12-25 03:32:00,
2013-12-24 22:37:00,67.8,62.1,30.02,NW,315,2.0,4.0,82,0.00,,,0.00,meteohub,2013-12-25 03:37:00,
2013-12-24 22:42:00,67.8,62.1,30.02,NW,315,1.0,4.0,82,0.00,,,0.00,meteohub,2013-12-25 03:42:00,
2013-12-24 22:47:00,67.6,62.2,30.01,NW,315,2.0,4.0,83,0.00,,,0.00,meteohub,2013-12-25 03:47:00,
2013-12-24 22:52:00,67.5,62.1,30.01,North,0,4.0,4.0,83,0.00,,,0.00,meteohub,2013-12-25 03:52:00,
2013-12-24 22:57:00,67.3,61.9,30.01,North,0,2.0,4.0,83,0.00,,,0.00,meteohub,2013-12-25 03:57:00,
2013-12-24 23:02:00,67.3,62.2,30.02,NW,315,2.0,4.0,84,0.00,,,0.00,meteohub,2013-12-25 04:02:00,
2013-12-24 23:07:00,67.5,62.4,30.02,North,0,2.0,4.0,84,0.00,,,0.00,meteohub,2013-12-25 04:07:00,
2013-12-24 23:12:00,67.5,62.1,30.01,North,0,2.0,3.0,83,0.00,,,0.00,meteohub,2013-12-25 04:12:00,
2013-12-24 23:17:00,67.6,62.2,30.01,NNW,338,3.0,3.0,83,0.00,,,0.00,meteohub,2013-12-25 04:17:00,
2013-12-24 23:22:00,67.8,62.4,30.01,North,0,3.0,3.0,83,0.00,,,0.00,meteohub,2013-12-25 04:22:00,
2013-12-24 23:27:00,67.8,62.4,30.01,North,0,6.0,6.0,83,0.00,,,0.00,meteohub,2013-12-25 04:27:00,
2013-12-24 23:32:00,68.0,62.6,30.01,NW,315,2.0,6.0,83,0.00,,,0.00,meteohub,2013-12-25 04:32:00,
2013-12-24 23:37:00,68.0,62.6,30.01,North,0,1.0,6.0,83,0.00,,,0.00,meteohub,2013-12-25 04:37:00,
2013-12-24 23:42:00,68.0,62.6,30.01,North,0,1.0,6.0,83,0.00,,,0.00,meteohub,2013-12-25 04:42:00,
2013-12-24 23:47:00,68.2,63.1,30.01,North,0,1.0,2.0,84,0.00,,,0.00,meteohub,2013-12-25 04:47:00,
2013-12-24 23:52:00,68.2,63.1,30.01,North,0,2.0,3.0,84,0.00,,,0.00,meteohub,2013-12-25 04:52:00,
2013-12-24 23:57:00,68.2,63.5,30.01,NW,315,0.0,3.0,85,0.00,,,0.00,meteohub,2013-12-25 04:57:00,